Hilo, HI

8:24 AM HST on January 17, 2017 (GMT -1000)
Hilo International

Weather History for PHTO - February, 2012

Change the Weather History Date:

Sunday, February 12, 2012

  Actual Average Record
Temperature  
Mean Temperature 73 °F 71 °F  
Max Temperature 80 °F 79 °F 86 °F (1968)
Min Temperature 66 °F 63 °F 56 °F (1995)
Degree Days  
Heating Degree Days 0 0  
Month to date heating degree days 0 0  
Since 1 July heating degree days 0 0  
Cooling Degree Days 8 6  
Month to date cooling degree days 81 72  
Year to date cooling degree days 309 270  
Growing Degree Days 22 (Base 50)    
Moisture  
Dew Point 65 °F    
Average Humidity 78    
Maximum Humidity 93    
Minimum Humidity 62    
Precipitation  
Precipitation 0.25 in 0.34 in 2.14 in (1994)
Month to date precipitation 0.66 4.01  
Year to date precipitation 2.73 13.27  
Snow  
Snow 0.00 in - - ()
Month to date snowfall 0.0  
Since 1 July snowfall 0.0  
Snow Depth 0.00 in    
Sea Level Pressure  
Sea Level Pressure 30.22 in    
Wind  
Wind Speed 6 mph (SW)    
Max Wind Speed 16 mph    
Max Gust Speed 20 mph    
Visibility 8 miles    
Events Rain    
T = Trace of Precipitation, MM = Missing Value Source: NWS Daily Summary

Daily Weather History Graph

Daily Weather History Graph

Search for Another Location

Airport or City:

Trip Planner

Search our weather history database for the weather conditions in past years. The results will help you decide how hot, cold, wet, or windy it might be!

Date:

Astronomy

Feb. 12, 2012 Rise Set
Actual Time 6:50 AM HST 6:18 PM HST
Civil Twilight 6:28 AM HST 6:40 PM HST
Nautical Twilight 6:02 AM HST 7:06 PM HST
Astronomical Twilight 5:36 AM HST 7:32 PM HST
Moon 11:27 PM HST (2/12) 10:11 AM HST (2/12)
Length of Visible Light 12h 12m
Length of Day
11h 27m
Waning Gibbous, 70% of the Moon is Illuminated
Feb 12
Waning Gibbous
Feb 14
Last Quarter
Feb 21
New
Feb 29
First Quarter
Mar 7
Full

Hourly Weather History & Observations

Time (HST) Temp. Dew Point Humidity Pressure Visibility Wind Dir Wind Speed Gust Speed Precip Events Conditions
12:53 AM 66.9 °F 63.0 °F 87% 30.25 in 10.0 mi Variable 4.6 mph - 0.04 in Rain Light Rain
1:30 AM 66.2 °F 64.4 °F 94% 30.24 in 9.0 mi SW 3.5 mph - 0.07 in Rain Light Rain
1:53 AM 66.9 °F 64.0 °F 90% 30.23 in 10.0 mi Variable 3.5 mph - 0.07 in   Overcast
2:23 AM 68.0 °F 66.2 °F 94% 30.23 in 3.0 mi Calm Calm - 0.01 in Rain Light Rain
2:36 AM 68.0 °F 64.4 °F 88% 30.23 in 5.0 mi SW 4.6 mph - 0.02 in Rain Rain
2:48 AM 66.2 °F 64.4 °F 94% 30.23 in 9.0 mi WSW 5.8 mph - 0.05 in Rain Light Rain
2:53 AM 66.9 °F 64.9 °F 93% 30.22 in 10.0 mi WSW 6.9 mph - 0.05 in Rain Light Rain
3:00 AM 66.2 °F 64.4 °F 94% 30.23 in 10.0 mi West 6.9 mph - 0.00 in Rain Light Rain
3:11 AM 66.2 °F 64.4 °F 94% 30.23 in 9.0 mi West 5.8 mph - 0.00 in Rain Light Rain
3:53 AM 66.0 °F 63.0 °F 90% 30.23 in 10.0 mi West 6.9 mph - 0.01 in Rain Light Rain
4:13 AM 66.2 °F 62.6 °F 88% 30.22 in 10.0 mi West 9.2 mph - 0.00 in   Overcast
4:46 AM 66.2 °F 62.6 °F 88% 30.22 in 10.0 mi WSW 8.1 mph - 0.01 in   Overcast
4:53 AM 66.0 °F 63.0 °F 90% 30.21 in 10.0 mi WSW 9.2 mph - 0.01 in   Overcast
5:23 AM 66.2 °F 62.6 °F 88% 30.21 in 10.0 mi SW 5.8 mph - N/A   Mostly Cloudy
5:31 AM 66.2 °F 62.6 °F 88% 30.22 in 10.0 mi SW 6.9 mph - N/A   Mostly Cloudy
5:53 AM 66.9 °F 64.0 °F 90% 30.23 in 9.0 mi Variable 3.5 mph - 0.02 in Rain Light Rain
6:05 AM 66.2 °F 64.4 °F 94% 30.23 in 10.0 mi WSW 3.5 mph - 0.00 in   Overcast
6:21 AM 66.2 °F 64.4 °F 94% 30.24 in 10.0 mi WSW 5.8 mph - 0.00 in   Overcast
6:53 AM 66.9 °F 64.9 °F 93% 30.25 in 9.0 mi SW 4.6 mph - 0.00 in Rain Light Rain
7:03 AM 66.2 °F 64.4 °F 94% 30.25 in 10.0 mi Calm Calm - 0.00 in   Overcast
7:46 AM 68.0 °F 64.4 °F 88% 30.27 in 4.0 mi Variable 4.6 mph - 0.00 in Rain Rain
7:53 AM 69.1 °F 64.9 °F 87% 30.27 in 4.0 mi Variable 3.5 mph - 0.01 in Rain Light Rain
8:37 AM 69.8 °F 66.2 °F 88% 30.27 in 9.0 mi West 5.8 mph - 0.04 in Rain Light Rain
8:53 AM 70.0 °F 66.0 °F 87% 30.27 in 8.0 mi West 5.8 mph - 0.05 in Rain Light Rain
9:48 AM 73.4 °F 66.2 °F 78% 30.28 in 10.0 mi SW 4.6 mph - 0.00 in   Mostly Cloudy
9:53 AM 73.9 °F 66.0 °F 76% 30.27 in 10.0 mi SSW 4.6 mph - 0.00 in   Mostly Cloudy
10:53 AM 75.9 °F 68.0 °F 76% 30.26 in 10.0 mi East 5.8 mph - 0.00 in   Scattered Clouds
11:44 AM 78.8 °F 64.4 °F 61% 30.24 in 10.0 mi ESE 5.8 mph - N/A   Mostly Cloudy
11:53 AM 77.0 °F 64.9 °F 66% 30.24 in 10.0 mi East 4.6 mph - N/A   Mostly Cloudy
12:12 PM 78.8 °F 64.4 °F 61% 30.23 in 10.0 mi ESE 5.8 mph - N/A   Scattered Clouds
12:53 PM 79.0 °F 64.0 °F 60% 30.20 in 10.0 mi Calm Calm - N/A   Clear
1:53 PM 79.0 °F 66.0 °F 64% 30.17 in 10.0 mi East 12.7 mph - N/A   Mostly Cloudy
2:53 PM 78.1 °F 64.9 °F 64% 30.16 in 10.0 mi ESE 11.5 mph - N/A   Mostly Cloudy
3:53 PM 75.0 °F 66.0 °F 73% 30.16 in 10.0 mi East 12.7 mph 19.6 mph N/A   Overcast
4:53 PM 72.0 °F 66.0 °F 81% 30.18 in 10.0 mi SSE 8.1 mph - 0.00 in   Overcast
5:17 PM 71.6 °F 66.2 °F 83% 30.19 in 2.5 mi SE 6.9 mph - 0.00 in Rain Light Rain
5:29 PM 69.8 °F 66.2 °F 88% 30.19 in 1.8 mi SE 4.6 mph - 0.01 in Rain Light Rain
5:43 PM 69.8 °F 66.2 °F 88% 30.19 in 2.5 mi Calm Calm - 0.03 in Rain Light Rain
5:53 PM 70.0 °F 66.9 °F 90% 30.19 in 1.8 mi SSW 4.6 mph - 0.03 in Rain Rain
5:55 PM 69.8 °F 66.2 °F 88% 30.19 in 2.0 mi SW 4.6 mph - 0.01 in Rain Light Rain
6:00 PM 69.8 °F 66.2 °F 88% 30.19 in 4.0 mi WSW 4.6 mph - 0.02 in Rain Light Rain
6:49 PM 69.8 °F 66.2 °F 88% 30.20 in 5.0 mi West 4.6 mph - 0.02 in Rain Light Rain
6:53 PM 70.0 °F 66.9 °F 90% 30.20 in 5.0 mi WSW 3.5 mph - 0.02 in Rain Light Rain
7:08 PM 69.8 °F 66.2 °F 88% 30.21 in 2.5 mi Calm Calm - 0.02 in Rain Rain
7:18 PM 69.8 °F 66.2 °F 88% 30.21 in 3.0 mi SSW 4.6 mph - 0.04 in Rain Light Rain
7:41 PM 69.8 °F 66.2 °F 88% 30.22 in 4.0 mi WSW 3.5 mph - 0.07 in Rain Light Rain
7:53 PM 69.1 °F 66.0 °F 90% 30.22 in 3.0 mi SW 4.6 mph - 0.08 in Rain Light Rain
8:53 PM 69.1 °F 66.9 °F 93% 30.22 in 7.0 mi South 3.5 mph - 0.03 in Rain Light Rain
9:04 PM 69.8 °F 66.2 °F 88% 30.23 in 7.0 mi Calm Calm - 0.00 in Rain Light Rain
9:31 PM 69.8 °F 66.2 °F 88% 30.23 in 9.0 mi SSW 3.5 mph - 0.01 in   Overcast
9:53 PM 69.1 °F 66.0 °F 90% 30.23 in 10.0 mi SW 4.6 mph - 0.01 in   Overcast
10:25 PM 69.8 °F 66.2 °F 88% 30.23 in 10.0 mi WSW 3.5 mph - N/A   Overcast
10:53 PM 69.1 °F 66.9 °F 93% 30.22 in 10.0 mi Calm Calm - 0.00 in Rain Light Rain
11:00 PM 69.8 °F 66.2 °F 88% 30.23 in 9.0 mi WSW 3.5 mph - 0.00 in Rain Light Rain
11:10 PM 69.8 °F 66.2 °F 88% 30.23 in 10.0 mi Calm Calm - 0.00 in Rain Light Rain
11:53 PM 69.1 °F 66.9 °F 93% 30.22 in 9.0 mi Calm Calm - 0.01 in Rain Light Rain